Volver al catálogo

HULIANWANG DIGUI-152

ActivoComunicacionesLEO
NORAD 67528·PAYLOAD·🇨🇳 China

Lanzado Jan 19, 2026 desde Wenchang Space Launch Site

Loading…

Próximos Pases (próximas 24 horas)

TLE

ActualizadoSource: Space-Track

Época: Sep 14, 2026, 10:07 UTC

1 67528U 26013G   26257.42176616 -.00000107  00000-0  35731-4 0  9997
2 67528  50.0053  35.3553 0000837  84.7196 275.3772 13.29330959 31922

Sigue HULIANWANG DIGUI-152 en tiempo real con AllMySat

Download on the App Store